Location: Unspecified
(54.3881°N, 0.0000°E)
Time: 11:58:36
(UTC+00:00)

NOAA 16 DEB - Visible Passes

Search period start: 04 April 2026 00:00
Search period end: 14 April 2026 00:00
Orbit: 795 x 802 km, 98.6° (Epoch: 26 March)

Date Brightness Start Highest point End Pass type
(mag) Time Alt. Az. Time Alt. Az. Time Alt. Az.
4 Apr ? 19:23:14 10° E 19:26:52 19° NE 19:30:30 10° N visible
4 Apr ? 21:03:24 33° SSE 21:05:49 82° ENE 21:11:05 10° NNW visible
4 Apr ? 22:44:17 17° WSW 22:46:07 20° W 22:49:53 10° NW visible
5 Apr ? 20:35:49 25° SE 20:38:43 54° ENE 20:43:50 10° N visible
5 Apr ? 22:16:42 24° SW 22:18:39 30° W 22:23:16 10° NNW visible
6 Apr ? 20:08:13 16° ESE 20:11:44 36° ENE 20:16:28 10° N visible
6 Apr ? 21:49:06 30° SSW 21:51:17 48° W 21:56:22 10° NNW visible
7 Apr ? 19:40:40 10° ESE 19:44:49 25° NE 19:49:00 10° N visible
7 Apr ? 21:21:31 32° S 21:24:00 75° WSW 21:29:17 10° NNW visible
7 Apr ? 23:02:24 12° WSW 23:04:36 14° W 23:07:23 10° NW visible
8 Apr ? 20:53:55 27° SSE 20:56:50 72° ENE 21:02:05 10° NNW visible
8 Apr ? 22:34:48 18° WSW 22:37:01 23° W 22:41:08 10° NW visible
9 Apr ? 20:26:19 19° SE 20:29:46 46° ENE 20:34:46 10° N visible
9 Apr ? 22:07:12 24° SW 22:09:34 35° W 22:14:22 10° NNW visible
10 Apr ? 19:58:42 12° ESE 20:02:46 31° ENE 20:07:21 10° N visible
10 Apr ? 21:39:35 28° SSW 21:42:12 55° W 21:47:23 10° NNW visible
10 Apr ? 23:22:34 10° W 23:23:03 10° W 23:23:32 10° WNW visible
11 Apr ? 19:31:58 10° ESE 19:35:53 22° NE 19:39:48 10° N visible
11 Apr ? 21:11:58 27° SSE 21:14:57 86° WSW 21:20:14 10° NNW visible
11 Apr ? 22:52:51 12° WSW 22:55:23 17° W 22:58:44 10° NW visible
12 Apr ? 20:44:21 21° SE 20:47:47 62° ENE 20:52:58 10° N visible
12 Apr ? 22:25:14 18° SW 22:27:50 26° W 22:32:14 10° NW visible
13 Apr ? 20:16:43 15° SE 20:20:43 40° ENE 20:25:36 10° N visible
13 Apr ? 21:57:36 23° SSW 22:00:23 41° W 22:05:21 10° NNW visible
